Simultaneous Nadir Overpasses (SNOs) Predictions

Prediction of SNOs between LANDSAT-8 and NOAA-19 Satellite Orbit:

Table of predicted SNOs for the next 14.0 days since TLE Epoch: 4/27/2024
Index Date (LANDSAT-8) Time (LANDSAT-8) Lat,Lon (LANDSAT-8) SZA (LANDSAT-8 ) Date (NOAA-19) Time (NOAA-19) Lat,Lon (NOAA-19) SZA (NOAA-19 ) Distance(km) Time Diff (sec)
1 04/27/2024 10:36:30 -80.74,-124.81 111.63 04/27/2024 10:36:31 -80.74,-124.86 111.63 0.90 1
2 04/29/2024 16:59:38 -80.74, 139.38 112.33 04/29/2024 16:59:31 -80.74, 139.35 112.33 0.61 7
3 05/01/2024 23:22:45 -80.74, 43.61 113.00 05/01/2024 23:22:30 -80.74, 43.77 112.99 2.87 15
4 05/02/2024 00:11:52 81.23,-142.01 68.05 05/02/2024 00:13:05 80.95,-141.14 67.98 34.59 73
5 05/04/2024 05:45:52 -80.72, -52.45 113.70 05/04/2024 05:45:30 -80.73, -52.30 113.68 2.75 22
6 05/04/2024 06:35:17 80.75, 115.52 66.35 05/04/2024 06:36:24 80.75, 115.56 66.39 0.80 67
7 05/06/2024 12:08:57 -80.73,-148.13 114.31 05/06/2024 12:08:29 -80.72,-148.16 114.33 0.98 28
8 05/06/2024 12:58:22 80.75, 19.82 65.73 05/06/2024 12:59:22 80.75, 19.87 65.76 0.97 60
9 05/08/2024 18:32:02 -80.71, 115.91 114.96 05/08/2024 18:31:28 -80.71, 115.83 114.98 1.35 34
10 05/08/2024 19:21:27 80.74, -76.16 65.09 05/08/2024 19:22:21 80.73, -76.30 65.09 2.45 54
11 05/11/2024 00:55:05 -80.70, 19.99 115.57 05/11/2024 00:54:25 -80.71, 20.04 115.57 1.27 40



Historial Predications of SNOs between LANDSAT-8 and NOAA-19
